• în România
  • Lista ţărilor
  • Pe 7 zile
  • Temperatura apei
  • Hartă satelitară
  • Meteo pe hartă
  • Widget-uri
  • user-avatar
    Intrare

    Meteo pe oră la Morozha

    Astăzi, 13 Noiembrie, Marţi

    Timp Temperatura Precipitaţii Vânt Presiune Umiditate
    00:00 -5°C° 0 mm 5 m/s 758 mmHg 53%
    01:00 -5°C° 0 mm 5 m/s 758 mmHg 53%
    02:00 -4°C° 0 mm 4 m/s 757 mmHg 55%
    03:00 -5°C° 0 mm 5 m/s 757 mmHg 56%
    04:00 -5°C° 0 mm 5 m/s 757 mmHg 57%
    05:00 -5°C° 0 mm 6 m/s 756 mmHg 57%
    06:00 -5°C° 0.1 mm 6 m/s 756 mmHg 58%
    07:00 -5°C° 0.1 mm 6 m/s 755 mmHg 58%
    08:00 -4°C° 0 mm 7 m/s 755 mmHg 58%
    09:00 -4°C° 0 mm 7 m/s 755 mmHg 57%
    10:00 -4°C° 0 mm 7 m/s 754 mmHg 56%
    11:00 -3°C° 0 mm 7 m/s 754 mmHg 55%
    12:00 -3°C° 0 mm 7 m/s 754 mmHg 54%
    13:00 -3°C° 0 mm 7 m/s 753 mmHg 53%
    14:00 -2°C° 0 mm 7 m/s 753 mmHg 52%
    15:00 -2°C° 0 mm 7 m/s 752 mmHg 52%
    16:00 -2°C° 0 mm 6 m/s 752 mmHg 53%
    17:00 -3°C° 0 mm 6 m/s 752 mmHg 54%
    18:00 -3°C° 0.1 mm 6 m/s 751 mmHg 55%
    19:00 -3°C° 0.1 mm 6 m/s 751 mmHg 56%
    20:00 -3°C° 0.1 mm 6 m/s 751 mmHg 57%
    21:00 -3°C° 0.1 mm 6 m/s 750 mmHg 57%
    22:00 -3°C° 0.1 mm 6 m/s 750 mmHg 57%
    23:00 -3°C° 0.1 mm 6 m/s 750 mmHg 57%

    Mâine, 14 Noiembrie, Miercuri

    Timp Temperatura Precipitaţii Vânt Presiune Umiditate
    00:00 -4°C° 0.3 mm 6 m/s 749 mmHg 60%
    01:00 -4°C° 0.3 mm 6 m/s 749 mmHg 64%
    02:00 -4°C° 0.3 mm 5 m/s 748 mmHg 67%
    03:00 -4°C° 0.6 mm 5 m/s 748 mmHg 69%
    04:00 -4°C° 0.6 mm 5 m/s 747 mmHg 70%
    05:00 -5°C° 0.6 mm 5 m/s 747 mmHg 72%
    06:00 -5°C° 0.6 mm 5 m/s 747 mmHg 75%
    07:00 -5°C° 0.6 mm 5 m/s 747 mmHg 78%
    08:00 -5°C° 0.6 mm 5 m/s 747 mmHg 81%
    09:00 -4°C° 0.6 mm 4 m/s 747 mmHg 82%
    10:00 -4°C° 0.6 mm 4 m/s 747 mmHg 83%
    11:00 -4°C° 0.6 mm 4 m/s 747 mmHg 84%
    12:00 -4°C° 0.4 mm 3 m/s 747 mmHg 84%
    13:00 -4°C° 0.4 mm 3 m/s 747 mmHg 84%
    14:00 -4°C° 0.4 mm 3 m/s 747 mmHg 84%
    15:00 -4°C° 0.3 mm 3 m/s 748 mmHg 84%
    16:00 -3°C° 0.3 mm 2 m/s 748 mmHg 85%
    17:00 -3°C° 0.3 mm 2 m/s 748 mmHg 85%
    18:00 -3°C° 0.1 mm 2 m/s 749 mmHg 85%
    19:00 -1°C° 0.1 mm 1 m/s 749 mmHg 86%
    20:00 -1°C° 0.1 mm 1 m/s 749 mmHg 86%
    21:00 -1°C° 0 mm 1 m/s 750 mmHg 87%
    22:00 -1°C° 0 mm 1 m/s 750 mmHg 87%
    23:00 -1°C° 0 mm 1 m/s 751 mmHg 88%

    Poimâine, 15 Noiembrie, Joi

    Timp Temperatura Precipitaţii Vânt Presiune Umiditate
    00:00 -1°C° 0 mm 1 m/s 751 mmHg 89%
    01:00 -1°C° 0 mm 1 m/s 751 mmHg 89%
    02:00 -1°C° 0 mm 1 m/s 752 mmHg 90%
    03:00 -1°C° 0 mm 1 m/s 752 mmHg 90%
    04:00 -1°C° 0 mm 1 m/s 752 mmHg 91%
    05:00 -1°C° 0 mm 1 m/s 753 mmHg 91%
    06:00 -1°C° 0 mm 1 m/s 753 mmHg 92%
    07:00 -1°C° 0 mm 1 m/s 754 mmHg 93%
    08:00 -1°C° 0 mm 1 m/s 754 mmHg 93%
    09:00 0°C° 0 mm 1 m/s 755 mmHg 92%
    10:00 +1°C° 0 mm 1 m/s 755 mmHg 90%
    11:00 +1°C° 0 mm 1 m/s 756 mmHg 88%
    12:00 +2°C° 0 mm 1 m/s 756 mmHg 88%
    13:00 +2°C° 0 mm 1 m/s 756 mmHg 89%
    14:00 +2°C° 0 mm 1 m/s 757 mmHg 89%
    15:00 +1°C° 0 mm 1 m/s 757 mmHg 91%
    16:00 +1°C° 0 mm 1 m/s 757 mmHg 93%
    17:00 0°C° 0 mm 1 m/s 757 mmHg 95%
    18:00 0°C° 0 mm 1 m/s 758 mmHg 95%
    19:00 0°C° 0 mm 1 m/s 758 mmHg 96%
    20:00 0°C° 0 mm 1 m/s 758 mmHg 96%
    21:00 0°C° 0 mm 1 m/s 759 mmHg 96%
    22:00 0°C° 0 mm 1 m/s 759 mmHg 96%
    23:00 0°C° 0 mm 1 m/s 759 mmHg 96%

    16 Noiembrie, Vineri

    Timp Temperatura Precipitaţii Vânt Presiune Umiditate
    00:00 0°C° 0 mm 1 m/s 760 mmHg 96%
    01:00 0°C° 0 mm 1 m/s 760 mmHg 96%
    02:00 0°C° 0 mm 1 m/s 760 mmHg 96%
    03:00 0°C° 0 mm 1 m/s 760 mmHg 96%
    04:00 0°C° 0 mm 1 m/s 760 mmHg 96%
    05:00 0°C° 0 mm 1 m/s 760 mmHg 97%
    06:00 0°C° 0 mm 1 m/s 761 mmHg 97%
    07:00 0°C° 0 mm 1 m/s 761 mmHg 97%
    08:00 0°C° 0 mm 1 m/s 761 mmHg 97%
    09:00 +1°C° 0 mm 1 m/s 761 mmHg 95%
    10:00 -1°C° 0 mm 2 m/s 761 mmHg 94%
    11:00 +1°C° 0 mm 2 m/s 762 mmHg 92%
    12:00 +1°C° 0 mm 2 m/s 762 mmHg 92%
    13:00 +1°C° 0 mm 2 m/s 762 mmHg 92%
    14:00 +1°C° 0 mm 2 m/s 762 mmHg 93%
    15:00 +1°C° 0 mm 2 m/s 762 mmHg 93%
    16:00 -1°C° 0 mm 2 m/s 761 mmHg 94%
    17:00 -1°C° 0 mm 2 m/s 761 mmHg 95%
    18:00 -1°C° 0 mm 2 m/s 761 mmHg 95%
    19:00 -1°C° 0 mm 2 m/s 761 mmHg 95%
    20:00 -1°C° 0 mm 2 m/s 762 mmHg 95%
    21:00 -1°C° 0 mm 2 m/s 761 mmHg 95%
    22:00 -2°C° 0 mm 2 m/s 761 mmHg 95%
    23:00 -2°C° 0 mm 2 m/s 761 mmHg 95%

    17 Noiembrie, Sâmbătă

    Timp Temperatura Precipitaţii Vânt Presiune Umiditate
    00:00 -2°C° 0 mm 2 m/s 761 mmHg 95%
    01:00 -1°C° 0 mm 2 m/s 761 mmHg 95%
    02:00 -1°C° 0 mm 2 m/s 761 mmHg 95%
    03:00 -1°C° 0 mm 2 m/s 760 mmHg 95%
    04:00 -1°C° 0 mm 2 m/s 760 mmHg 95%
    05:00 -1°C° 0 mm 2 m/s 760 mmHg 95%
    06:00 -1°C° 0 mm 2 m/s 760 mmHg 95%
    07:00 +1°C° 0 mm 2 m/s 759 mmHg 96%
    08:00 +1°C° 0 mm 2 m/s 759 mmHg 96%
    09:00 +1°C° 0 mm 2 m/s 759 mmHg 96%
    10:00 +2°C° 0 mm 2 m/s 758 mmHg 96%
    11:00 +1°C° 0 mm 3 m/s 758 mmHg 96%
    12:00 +1°C° 0 mm 3 m/s 757 mmHg 96%
    13:00 +1°C° 0 mm 3 m/s 757 mmHg 96%
    14:00 +1°C° 0 mm 3 m/s 756 mmHg 96%
    15:00 +1°C° 0 mm 3 m/s 756 mmHg 96%
    16:00 +1°C° 0 mm 3 m/s 755 mmHg 96%
    17:00 +1°C° 0 mm 3 m/s 755 mmHg 96%
    18:00 +1°C° 0.1 mm 3 m/s 754 mmHg 96%
    19:00 +1°C° 0.1 mm 3 m/s 754 mmHg 96%
    20:00 +1°C° 0.1 mm 3 m/s 753 mmHg 96%
    21:00 +2°C° 0.1 mm 3 m/s 753 mmHg 96%
    22:00 +2°C° 0.1 mm 3 m/s 752 mmHg 96%
    23:00 +2°C° 0.1 mm 3 m/s 752 mmHg 96%

    18 Noiembrie, Duminică

    Timp Temperatura Precipitaţii Vânt Presiune Umiditate
    00:00 +2°C° 0.1 mm 3 m/s 751 mmHg 96%
    01:00 +2°C° 0.1 mm 3 m/s 751 mmHg 95%
    02:00 +2°C° 0.1 mm 3 m/s 751 mmHg 95%
    03:00 +1°C° 0.1 mm 3 m/s 750 mmHg 94%
    04:00 +1°C° 0.1 mm 3 m/s 750 mmHg 94%
    05:00 0°C° 0.1 mm 4 m/s 750 mmHg 94%
    06:00 0°C° 0.1 mm 4 m/s 750 mmHg 93%
    07:00 0°C° 0.1 mm 4 m/s 749 mmHg 92%
    08:00 +1°C° 0.1 mm 5 m/s 749 mmHg 91%
    09:00 +1°C° 0.1 mm 5 m/s 750 mmHg 88%
    10:00 +1°C° 0.1 mm 5 m/s 750 mmHg 85%
    11:00 +1°C° 0.1 mm 5 m/s 750 mmHg 82%
    12:00 +1°C° 0 mm 5 m/s 750 mmHg 81%
    13:00 +1°C° 0 mm 5 m/s 750 mmHg 80%
    14:00 0°C° 0 mm 5 m/s 750 mmHg 79%
    15:00 0°C° 0.1 mm 5 m/s 751 mmHg 79%
    16:00 0°C° 0.1 mm 5 m/s 751 mmHg 80%
    17:00 -1°C° 0.1 mm 5 m/s 751 mmHg 80%
    18:00 -1°C° 0 mm 5 m/s 752 mmHg 80%
    19:00 -1°C° 0 mm 5 m/s 752 mmHg 80%
    20:00 -1°C° 0 mm 5 m/s 753 mmHg 80%
    21:00 -2°C° 0 mm 5 m/s 753 mmHg 80%
    22:00 -2°C° 0 mm 5 m/s 753 mmHg 81%
    23:00 -3°C° 0 mm 4 m/s 754 mmHg 81%
    Arată mai mult